Regional Weather Roundup
Issued by NWS

Home | Current Version | Previous Version | Graphics & Text | Print | Product List | Glossary Off
Versions: 1 2 3 4 5 6 7 8 9 10 11 12 13 14 15 16 17 18 19 20 21 22 23 24 25 26 27 28 29 30 31 32 33 34 35 36 37 38 39 40 41 42 43 44 45 46 47 48 49 50

000
ASUS43 KMKX 301821
RWRWI

WISCONSIN REGIONAL WEATHER ROUNDUP
NATIONAL WEATHER SERVICE MILWAUKEE/SULLIVAN WI
100 PM CDT SAT JUL 30 2016

NOTE: "FAIR" INDICATES FEW OR NO CLOUDS BELOW 12,000 FEET WITH NO
SIGNIFICANT WEATHER AND/OR OBSTRUCTIONS TO VISIBILITY.

WIZ001-002-006>008-014>016-023>028-301900-
NORTHWEST WISCONSIN

CITY           SKY/WX    TMP DP  RH WIND       PRES   REMARKS
SUPERIOR ARPT  SUNNY     71  61  72 NE7       30.06S
6HR MIN TEMP:  55; 6HR MAX TEMP:  71;

ASHLAND        SUNNY     79  60  52 VRB6      30.06S HX  80
6HR MIN TEMP:  55; 6HR MAX TEMP:  79;

HAYWARD        SUNNY     77  54  44 E8        30.07S
6HR MIN TEMP:  61; 6HR MAX TEMP:  77;

SIREN          NOT AVBL
CUMBERLAND     PTSUNNY   73  54  49 SE9       30.07S
RICE LAKE      SUNNY     76  56  50 E8        30.08S
6HR MIN TEMP:  58; 6HR MAX TEMP:  76;

CHETEK         SUNNY     77  58  51 MISG      30.06F
6HR MIN TEMP:  60; 6HR MAX TEMP:  77;

LADYSMITH      MOSUNNY   78  55  45 E7        30.08F
6HR MIN TEMP:  59; 6HR MAX TEMP:  78;

EAU CLAIRE     MOSUNNY   77  58  51 SE3       30.04S
6HR MIN TEMP:  62; 6HR MAX TEMP:  80;

MENOMONIE      SUNNY     81  58  44 E9        30.05S HX  81
6HR MIN TEMP:  61; 6HR MAX TEMP:  82;

NEW RICHMOND   MOSUNNY   78  59  52 E9        30.05S
6HR MIN TEMP:  62; 6HR MAX TEMP:  78;

OSCEOLA        PTSUNNY   76  64  64 SE5       30.07S
6HR MIN TEMP:  62; 6HR MAX TEMP:  77;

$$

WIZ003>005-009-010-017-018-301900-
NORTH CENTRAL WISCONSIN

CITY           SKY/WX    TMP DP  RH WIND       PRES   REMARKS
MANITOWISH WTR MOSUNNY   74  56  54 SE3       30.10S
6HR MIN TEMP:  55; 6HR MAX TEMP:  74;

ARBOR VITAE    MOSUNNY   77  56  48 SE8       30.10S
6HR MIN TEMP:  62; 6HR MAX TEMP:  77;

WOODRUFF       MOSUNNY   77  56  48 SE8       30.10S
6HR MIN TEMP:  62; 6HR MAX TEMP:  77;

RHINELANDER    PTSUNNY   74  54  49 VRB7      30.10S
6HR MIN TEMP:  58; 6HR MAX TEMP:  76;

EAGLE RIVER    MOSUNNY   75  48  37 E7        30.10S
6HR MIN TEMP:  56; 6HR MAX TEMP:  76;

LAND O LAKES   SUNNY     74  52  46 E7        30.11S
6HR MIN TEMP:  54; 6HR MAX TEMP:  76;

PHILLIPS       PTSUNNY   74  56  53 SE5       30.09S
6HR MIN TEMP:  56; 6HR MAX TEMP:  75;

TOMAHAWK       CLOUDY    75  55  50 E6        30.09S
6HR MIN TEMP:  51; 6HR MAX TEMP:  76;

MEDFORD        MOSUNNY   75  58  54 E8        30.08S
6HR MIN TEMP:  57; 6HR MAX TEMP:  76;

MERRILL        PTSUNNY   76  60  57 E9        30.08S
6HR MIN TEMP:  55; 6HR MAX TEMP:  76;

$$

WIZ029-030-035-036-043>047-301900-
CENTRAL WISCONSIN

CITY           SKY/WX    TMP DP  RH WIND       PRES   REMARKS
WAUSAU         MOSUNNY   75  58  55 SE5       30.06S
6HR MIN TEMP:  61; 6HR MAX TEMP:  76;

MOSINEE        MOSUNNY   75  61  60 E6        30.08S
MARSHFIELD     PTSUNNY   77  60  55 E8        30.06S
6HR MIN TEMP:  60; 6HR MAX TEMP:  78;

STEVENS POINT  MOSUNNY   74  59  60 E10       30.07S
6HR MIN TEMP:  60; 6HR MAX TEMP:  75;

WAUPACA        SUNNY     80  56  44 NE8       30.06S HX  80
6HR MIN TEMP:  64; 6HR MAX TEMP:  80;

WAUTOMA        SUNNY     76  57  51 E10       30.06S
6HR MIN TEMP:  63; 6HR MAX TEMP:  76;

WISC RAPIDS    MOSUNNY   76  57  51 E7        30.07S
6HR MIN TEMP:  63; 6HR MAX TEMP:  79;

CAMP DOUGLAS   PTSUNNY   75  63  64 E8        30.05R
$$

WIZ011>013-019>022-031-037>040-048>050-301900-
NORTHEAST WISCONSIN

CITY           SKY/WX    TMP DP  RH WIND       PRES   REMARKS
ANTIGO         SUNNY     73  56  53 CALM      30.10S
6HR MIN TEMP:  57; 6HR MAX TEMP:  74;

SHAWANO        SUNNY     78  56  46 E9        30.08S
6HR MIN TEMP:  63; 6HR MAX TEMP:  78;

OCONTO         SUNNY     74  56  51 NE9       30.07F
6HR MIN TEMP:  61; 6HR MAX TEMP:  75;

STURGEON BAY   SUNNY     75  52  44 VRB7      30.08S
6HR MIN TEMP:  66; 6HR MAX TEMP:  76;

GREEN BAY      SUNNY     76  57  51 NE15      30.06S
6HR MIN TEMP:  61; 6HR MAX TEMP:  76;

MANITOWOC      SUNNY     73  57  57 NE10      30.06S
6HR MIN TEMP:  63; 6HR MAX TEMP:  74; 6HR PCP:  0.01;

APPLETON       PTSUNNY   75  50  41 NE12      30.05R
CLINTONVILLE   MOSUNNY   77  52  41 E7        30.07R
OSHKOSH        SUNNY     76  57  51 NE10      30.05S
6HR MIN TEMP:  69; 6HR MAX TEMP:  76;

$$

WIZ032>034-041-042-053>061-301900-
SOUTHWEST WISCONSIN

CITY           SKY/WX    TMP DP  RH WIND       PRES   REMARKS
LA CROSSE      PTSUNNY   80  63  55 VRB3      30.03S HX  81
6HR MIN TEMP:  67; 6HR MAX TEMP:  81;

SPARTA         CLOUDY    78  62  58 E6        30.05S
6HR MIN TEMP:  62; 6HR MAX TEMP:  79;

VIROQUA        PTSUNNY   76  61  60 E5        30.06R
6HR MIN TEMP:  63; 6HR MAX TEMP:  77;

BOSCOBEL       PTSUNNY   78  62  57 E8        30.03S HX  80
6HR MIN TEMP:  64; 6HR MAX TEMP:  79;

PRAIRIE DU CHI PTSUNNY   77  64  65 NE6       30.02S
6HR MIN TEMP:  64; 6HR MAX TEMP:  77;

PLATTEVILLE    MOSUNNY   78  64  62 E6        30.04R HX  80
6HR MIN TEMP:  65; 6HR MAX TEMP:  78;

$$

WIZ056-057-062-063-064-067-068-301900-
SOUTH CENTRAL WISCONSIN

CITY           SKY/WX    TMP DP  RH WIND       PRES   REMARKS
REEDSBURG      CLOUDY    76  62  61 E7        30.04S
6HR MIN TEMP:  62; 6HR MAX TEMP:  76;

BARABOO/DELLS  CLOUDY    76  60  55 E9        30.05S
6HR MIN TEMP:  62; 6HR MAX TEMP:  77;

LONE ROCK      PTSUNNY   77  61  57 E9        30.04S
6HR MIN TEMP:  66; 6HR MAX TEMP:  77;

MINERAL POINT  MOSUNNY   79  61  53 NE9       30.04S HX  80
MADISON        PTSUNNY   77  62  59 E9        30.03S
6HR MIN TEMP:  64; 6HR MAX TEMP:  77;

MIDDLETON        N/A    N/A N/A N/A E8        30.05R
WATERTOWN      SUNNY     77  61  57 NE10      30.03R
6HR MIN TEMP:  65; 6HR MAX TEMP:  78;

MONROE         MOSUNNY   75  61  60 NE8       30.03R
JANESVILLE     MOSUNNY   79  59  50 E12       30.01R HX  80
$$

WIZ051-052-058>065-066-070>072-301900-
SOUTHEAST WISCONSIN

CITY           SKY/WX    TMP DP  RH WIND       PRES   REMARKS
MILWAUKEE      PTSUNNY   74  62  66 NE13      30.03S
6HR MIN TEMP:  69; 6HR MAX TEMP:  75;

WAUKESHA       SUNNY     73  54  49 E12       30.04S
MILWAUKEE/TIMM MOSUNNY   73  57  56 E9        30.05R
RACINE         MOSUNNY   75  63  66 N10       30.04R
6HR MIN TEMP:  69; 6HR MAX TEMP:  76;

BURLINGTON     SUNNY     78  57  49 NE9       30.02S
6HR MIN TEMP:  65; 6HR MAX TEMP:  78;

KENOSHA        PTSUNNY   77  62  59 NE8       30.02S
6HR MIN TEMP:  69; 6HR MAX TEMP:  77;

FOND DU LAC    SUNNY     78  57  48 E8        30.05R
6HR MIN TEMP:  68; 6HR MAX TEMP:  79;

SHEBOYGAN      SUNNY     73  61  65 NE13      30.05S
6HR MIN TEMP:  63; 6HR MAX TEMP:  74;

WEST BEND      SUNNY     75  55  50 E10G16    30.04S
JUNEAU         SUNNY     75  58  55 E12       30.05S
6HR MIN TEMP:  64; 6HR MAX TEMP:  75;

$$

LSZ147-162-301900-
LAKE SUPERIOR

STATION/POSITION TIME  TEMP    WIND        PRES    WAVE
                       AIR SEA DIR/SP/G            HT/PER
                 (UTC) (F)     (DEG/KT/KT) (MB)    (FT/S)
W MID LAKE BUOY  1750   64 64  100/  4/  4 1018.3R   0
DEVILS ISLAND    1800   66      60/  6/  7 1018.2F
PORT WING        1700   65      10/  4/  5 1018.3S
SAXON HARBOR     1740   69      30/  8/  9 1018.3S
$$

LMZ867-665-643>646-301900-
LAKE MICHIGAN

STATION/POSITION TIME  TEMP    WIND        PRES    WAVE
                       AIR SEA DIR/SP/G            HT/PER
                 (UTC) (F)     (DEG/KT/KT) (MB)    (FT/S)
CHAMBERS ISLAND  1700   72      60/  9/ 12 1018.6S
S GREENC1F1C2F2C3F3C4F4C5F5C6F6C7F7C8M1C9M2Ca!


USA.gov is the U.S. government's official web portal to all federal, state and local government web resources and services.